This demonstration page uses our WeatherBlox Daily Observations layout. Learn more.

Left ArrowRight Arrow

39.92423, -83.80882

Hourly Observations for March 29, 2020

Temp ( °F °C ) Dew Point ( °F °C ) Humidity (%) Winds ( mph kmh ) Pressure ( in mb ) Visibility ( mi km ) Precip ( " mm )
12:11 am 00:11 Cloudy with Nearby Thunderstorms 64 18 64 18 100 100 S 6 9 29.77 1008 10 16.0934 0 0
12:54 am 00:54 Cloudy with Thunderstorms 64 18 64 18 100 100 SW 25 41 29.78 1008 7 11.26538 0 0
12:56 am 00:56 Cloudy with Thunderstorms 64 17.8 64 17.8 100 100 SW 25 41 29.79 1009 7 11.26538 0 0
1:05 am 01:05 Cloudy with Nearby Thunderstorms 64 18 64 18 100 100 SW 21 33 29.79 1009 9 14.48406 0 0
1:16 am 01:16 Cloudy with Nearby Thunderstorms 63 17 63 17 100 100 SSW 12 19 29.76 1008 10 16.0934 0 0
1:37 am 01:37 Mostly Cloudy with Light Rain 63 17 63 17 100 100 SW 7 11 29.73 1007 10 16.0934 0 0
1:56 am 01:56 Mostly Cloudy 62 16.7 62 16.7 100 100 SE 9 15 29.72 1006 10 16.0934 0 0
2:56 am 02:56 Cloudy 63 17.2 63 17.2 100 100 SSE 14 22 29.68 1005 10 16.0934 0 0
3:56 am 03:56 Mostly Clear 64 17.8 64 17.8 100 100 S 10 17 29.64 1004 10 16.0934 0 0
4:56 am 04:56 Mostly Cloudy 64 17.8 64 17.8 100 100 SSW 17 28 29.61 1003 10 16.0934 0 0
5:56 am 05:56 Cloudy 65 18.3 62 16.7 90 90 SSW 17 28 29.62 1003 10 16.0934 0 0
6:56 am 06:56 Partly Cloudy 65 18.3 61 16.1 87 87 SW 16 26 29.62 1003 10 16.0934 0 0
7:51 am 07:51 Cloudy 64 18 61 16 88 88 SSW 17 28 29.64 1004 10 16.0934 0 0
7:56 am 07:56 Cloudy 64 17.8 61 16.1 90 90 SSW 16 26 29.65 1004 10 16.0934 0 0
8:43 am 08:43 Mostly Sunny 64 18 59 15 83 83 SW 23 37 29.64 1004 10 16.0934 0 0
8:56 am 08:56 Mostly Sunny 64 17.8 57 13.9 78 78 SW 16 26 29.65 1004 10 16.0934 0 0
9:56 am 09:56 Mostly Cloudy 63 17.2 51 10.6 65 65 WSW 28 44 29.65 1004 10 16.0934 0 0
10:56 am 10:56 Mostly Sunny 63 17.2 48 8.9 58 58 SW 26 43 29.68 1005 10 16.0934 0 0
11:56 am 11:56 Mostly Cloudy 62 16.7 47 8.3 58 58 SW 31 50 29.7 1006 10 16.0934 0 0
12:56 pm 12:56 Mostly Cloudy 62 16.7 45 7.2 54 54 WSW 33 54 29.73 1007 10 16.0934 0 0
1:56 pm 13:56 Mostly Cloudy 62 16.7 48 8.9 60 60 WSW 26 43 29.76 1008 10 16.0934 0 0
2:56 pm 14:56 Mostly Cloudy 61 16.1 46 7.8 58 58 WSW 29 46 29.79 1009 10 16.0934 0 0
3:56 pm 15:56 Mostly Sunny 61 16.1 45 7.2 56 56 WSW 30 48 29.81 1009 10 16.0934 0 0
4:56 pm 16:56 Mostly Sunny 62 16.7 45 7.2 54 54 WSW 28 44 29.82 1010 10 16.0934 0 0
5:56 pm 17:56 Partly Cloudy 62 16.7 45 7.2 54 54 WSW 28 44 29.85 1011 10 16.0934 0 0
6:56 pm 18:56 Mostly Sunny 61 16.1 44 6.7 54 54 WSW 23 37 29.86 1011 10 16.0934 0 0
7:56 pm 19:56 Sunny 58 14.4 43 6.1 58 58 W 16 26 29.9 1013 10 16.0934 0.01 0.254
8:56 pm 20:56 Mostly Cloudy 57 13.9 43 6.1 60 60 WSW 12 19 29.93 1014 10 16.0934 0 0
9:56 pm 21:56 Partly Cloudy 56 13.3 41 5 57 57 WSW 17 28 29.95 1014 10 16.0934 0 0
10:56 pm 22:56 Mostly Clear 55 12.8 40 4.4 57 57 WSW 15 24 29.96 1015 10 16.0934 0 0
11:56 pm 23:56 Clear 54 12.2 37 2.8 53 53 WSW 17 28 29.97 1015 10 16.0934 0 0

Powered by AerisWeather